Location: Bord�res
(43.2000°N, 0.2167°W)
Time: 13:12:19
(UTC+00:00)

Cosmos 1271 Rocket - Pass Details

Date: 03 March 2021
Orbit: 498 x 544 km, 81.2° (Epoch: 13 April)

Event Time Altitude Azimuth Distance (km) Brightness Sun altitude
Rises 18:29:58 0° 347° (NNW) 2,599 6.4 -7.6°
Reaches altitude 10° 18:32:06 10° 344° (NNW) 1,712 5.5 -8.0°
Maximum altitude 18:35:48 64° 263° (W) 558 3.2 -8.7°
Drops below altitude 10° 18:39:31 10° 181° (S) 1,709 5.4 -9.3°
Sets 18:41:38 0° 178° (S) 2,594 6.2 -9.7°
